Location: Igri�s
(42.2144°N, 0.4320°W)
Time: 16:37:57
(UTC+00:00)

H-2A R/B - Pass Details

Date: 13 August 2020
Orbit: 733 x 837 km, 98.2° (Epoch: 18 September)

Event Time Altitude Azimuth Distance (km) Brightness Sun altitude
Rises 19:33:13 0° 176° (S) 3,264 5.0 -5.7°
Reaches altitude 10° 19:35:35 10° 180° (S) 2,324 4.3 -6.1°
Maximum altitude 19:40:37 57° 259° (W) 894 2.7 -6.9°
Drops below altitude 10° 19:45:34 10° 339° (NNW) 2,280 5.2 -7.7°
Sets 19:47:53 0° 343° (NNW) 3,197 6.0 -8.1°
